Penticton, British Columbia

9:54 PM PDT on September 27, 2016 (GMT -0700)
Penticton

Weather History for CYYF - November, 2012

Change the Weather History Date:

Sunday, November 11, 2012

  Actual Average Record
Temperature  
Mean Temperature 25 °F -  
Max Temperature 34 °F 44 °F 59 °F (1999)
Min Temperature 16 °F 33 °F 16 °F (2012)
Degree Days  
Heating Degree Days 40    
Moisture  
Dew Point 21 °F    
Average Humidity 76    
Maximum Humidity 93    
Minimum Humidity 53    
Precipitation  
Precipitation 0.03 in - - ()
Sea Level Pressure  
Sea Level Pressure 30.33 in    
Wind  
Wind Speed 7 mph ()    
Max Wind Speed 16 mph    
Max Gust Speed 23 mph    
Visibility 11.7 miles    
Events Snow    
Averages and records for this station are not official NWS values.
T = Trace of Precipitation, MM = Missing Value Source: Averaged Metar Reports

Daily Weather History Graph

Daily Weather History Graph

Search for Another Location

Airport or City:

Trip Planner

Search our weather history database for the weather conditions in past years. The results will help you decide how hot, cold, wet, or windy it might be!

Date:

Astronomy

Nov. 11, 2012 Rise Set
Actual Time 7:04 AM PST 4:20 PM PST
Civil Twilight 6:29 AM PST 4:55 PM PST
Nautical Twilight 5:50 AM PST 5:33 PM PST
Astronomical Twilight 5:13 AM PST 6:11 PM PST
Moon 4:12 AM PST (11/11) 2:55 PM PST (11/11)
Length of Visible Light 10h 25m
Length of Day
9h 16m
Waning Crescent, 6% of the Moon is Illuminated
Nov 11
Waning Crescent
Nov 13
New
Nov 20
First Quarter
Nov 28
Full
Dec 6
Last Quarter

Hourly Weather History & Observations

Time (PST) Temp. Windchill Dew Point Humidity Pressure Visibility Wind Dir Wind Speed Gust Speed Precip Events Conditions
12:00 AM 21.2 °F 11.7 °F 12.2 °F 68% 30.30 in 15.0 mi NNW 8.1 mph - N/A   Clear
1:00 AM 21.2 °F 11.7 °F 14.0 °F 74% 30.30 in 15.0 mi North 8.1 mph - N/A   Clear
2:00 AM 19.4 °F - 12.2 °F 74% 30.31 in 15.0 mi Calm Calm - N/A   Clear
3:00 AM 17.6 °F - 12.2 °F 79% 30.32 in 15.0 mi Calm Calm - N/A   Partly Cloudy
4:00 AM 18 °F - 13 °F 70% 30.33 in 15 mi NNW 3.5 mph - -   Clear
4:00 AM 17.6 °F - 12.2 °F 79% 30.33 in 15.0 mi NNW 2.3 mph - N/A   Scattered Clouds
5:00 AM 19.4 °F 14.3 °F 14.0 °F 80% 30.33 in 15.0 mi NW 3.5 mph - N/A   Mostly Cloudy
6:00 AM 17.6 °F - 14.0 °F 86% 30.35 in 15.0 mi NE 2.3 mph - N/A   Mostly Cloudy
7:00 AM 19.4 °F 14.3 °F 15.8 °F 86% 30.34 in 15.0 mi NNE 3.5 mph - N/A   Mostly Cloudy
8:00 AM 21.2 °F - 15.8 °F 80% 30.36 in 15.0 mi Calm Calm - N/A   Overcast
9:00 AM 24.8 °F - 17.6 °F 74% 30.37 in 15.0 mi Calm Calm - N/A   Mostly Cloudy
10:00 AM 28 °F - 18 °F 53% 30.38 in 15 mi South 4.6 mph - -   Overcast
10:00 AM 28.4 °F 22.2 °F 17.6 °F 64% 30.38 in 15.0 mi SSW 5.8 mph - N/A   Overcast
11:00 AM 28.4 °F 21.2 °F 19.4 °F 69% 30.38 in 15.0 mi SSE 6.9 mph - N/A   Overcast
12:00 PM 30.2 °F 20.2 °F 17.6 °F 60% 30.36 in 15.0 mi South 12.7 mph - N/A   Overcast
1:00 PM 30.2 °F 20.8 °F 19.4 °F 64% 30.36 in 15.0 mi SSE 11.5 mph 18.4 mph N/A   Overcast
2:00 PM 32.0 °F 22.5 °F 19.4 °F 60% 30.35 in 15.0 mi SSE 12.7 mph 21.9 mph N/A   Overcast
3:00 PM 32.0 °F 21.6 °F 21.2 °F 64% 30.36 in 15.0 mi South 15.0 mph 21.9 mph N/A   Overcast
4:00 PM 32 °F - 22 °F 56% 30.36 in 15 mi South 13.8 mph - -   Overcast
4:00 PM 32.0 °F 22.1 °F 23.0 °F 69% 30.36 in 15.0 mi South 13.8 mph 19.6 mph N/A   Overcast
4:48 PM 32.0 °F 21.2 °F 23.0 °F 69% 30.36 in 10.0 mi South 16.1 mph 23.0 mph N/A Snow Light Snow
5:00 PM 32.0 °F 22.1 °F 23.0 °F 69% 30.36 in 15.0 mi South 13.8 mph 19.6 mph N/A Snow Light Snow
6:00 PM 32.0 °F 21.6 °F 24.8 °F 75% 30.35 in 10.0 mi SSE 15.0 mph - N/A Snow Light Snow
7:00 PM 32.0 °F 23.0 °F 26.6 °F 80% 30.35 in 10.0 mi SSE 11.5 mph 19.6 mph N/A Snow Light Snow
8:00 PM 33.8 °F 25.3 °F 26.6 °F 75% 30.34 in 12.0 mi South 11.5 mph - N/A Snow Light Snow
9:00 PM 33.8 °F 24.8 °F 26.6 °F 75% 30.32 in 15.0 mi SSE 12.7 mph 18.4 mph N/A   Overcast
9:22 PM 33.8 °F 24.3 °F 26.6 °F 75% 30.32 in 10.0 mi South 13.8 mph 19.6 mph N/A Snow Light Snow
9:43 PM 33.8 °F 25.3 °F 30.2 °F 87% 30.32 in 8.0 mi South 11.5 mph 18.4 mph N/A Snow Light Snow
10:00 PM 33 °F - 30 °F 84% 30.31 in 7 mi SSE 11.5 mph - - Snow Light Snow
10:12 PM 32.0 °F 21.6 °F 30.2 °F 93% 30.30 in 5.0 mi South 15.0 mph - N/A Snow Light Snow
10:23 PM 32.0 °F 22.5 °F 30.2 °F 93% 30.30 in 2.5 mi South 12.7 mph 18.4 mph N/A Snow Light Snow
11:00 PM 32.0 °F 24.2 °F 30.2 °F 93% 30.29 in 1.5 mi South 9.2 mph - N/A Snow Light Snow
11:13 PM 32.0 °F 23.6 °F 30.2 °F 93% 30.29 in 1.0 mi South 10.4 mph 18.4 mph N/A Snow Light Snow
11:31 PM 32.0 °F 22.5 °F 30.2 °F 93% 30.29 in 1.5 mi SSE 12.7 mph - N/A Snow Light Snow
11:43 PM 32.0 °F 24.2 °F 30.2 °F 93% 30.29 in 2.0 mi SE 9.2 mph 17.3 mph N/A Snow Light Snow